Flag for U.S.A. Weather past 2 weeks in Newark, New Jersey, U.S.A.

Now
53 °F

Scattered clouds.


Feels Like: 48 °F
Forecast: 36 / 51 °F
Wind: 17 mph from Northwest

Location: Newark International Airport

Current Time: Apr 1, 2015 at 5:54:42 PM

Latest Report: Apr 1, 2015 at 4:51 PM


Visibility: 10 mi

Pressure: 30.08 "Hg

Humidity: 27%

Dew point: 20 °F

Location of NewarkLocation

Historic Weather in Newark — Graph

°F

Newark temperature yesterday

Maximum temperature yesterday: 46 °F (at 10:51 AM)
Minimum temperature yesterday: 35 °F (at 7:51 PM)
Average temperature yesterday: 41 °F

Past Weeks' High & Low Weather Summary

 TemperatureHumidityPressure
High63 °F (Mar 26, 7:51 PM)100% (Mar 26, 7:51 AM)30.42 "Hg (Mar 26, 7:51 AM)
Low23 °F (Mar 23, 6:51 AM)15% (Mar 29, 4:51 PM)29.58 "Hg (Mar 26, 6:51 PM)
Average38 °F52%30.05 "Hg
* Reported Mar 17 4:51 PM — Apr 1 4:51 PM, Newark, Weather by CustomWeather, © 2015

Note: Actual official high and low records may vary slightly from our data, if they occured in-between our weather recording intervals... More about our weather records

Advertising

Newark weather history for previous 24 hours

 ConditionsComfort  
Time TempWeatherWind HumidityBarometerVisibility
4:51 PM
Wed, Apr 1
53 °FScattered clouds.17 mph27%30.08 "Hg10 mi
3:51 PM50 °FScattered clouds.9 mph35%30.08 "Hg10 mi
2:51 PM50 °FScattered clouds.18 mph30%30.09 "Hg10 mi
1:51 PM48 °FPartly sunny.20 mph30%30.10 "Hg10 mi
12:51 PM48 °FPartly sunny.16 mph32%30.09 "Hg10 mi
11:51 AM45 °FBroken clouds.5 mph31%30.09 "Hg10 mi
10:51 AM42 °FBroken clouds.9 mph32%30.09 "Hg10 mi
9:51 AM39 °FPartly sunny.8 mph46%30.08 "Hg10 mi
8:51 AM36 °FBroken clouds.8 mph48%30.05 "Hg10 mi
7:51 AM36 °FPartly sunny.10 mph46%30.02 "Hg10 mi
6:51 AM33 °FPassing clouds.16 mph56%29.97 "Hg10 mi
5:51 AM33 °FPassing clouds.16 mph61%29.94 "Hg10 mi
4:51 AM34 °FPassing clouds.16 mph64%29.90 "Hg10 mi
3:51 AM34 °FPassing clouds.12 mph73%29.89 "Hg10 mi
2:51 AM35 °FPassing clouds.12 mph72%29.86 "Hg10 mi
1:51 AM36 °FPassing clouds.15 mph75%29.85 "Hg10 mi
12:51 AM37 °FPartly cloudy.9 mph82%29.83 "Hg10 mi
11:51 PM
Tue, Mar 31
37 °FPassing clouds.9 mph86%29.82 "Hg10 mi
10:51 PM37 °FMostly cloudy.12 mph89%29.80 "Hg10 mi
9:51 PM36 °FMostly cloudy.8 mph92%29.80 "Hg9 mi
8:51 PM35 °FLight rain. Fog.8 mph92%29.79 "Hg5 mi
7:51 PM35 °FLight rain. Fog.10 mph92%29.78 "Hg4 mi
6:56 PM37 °FLight rain. Mostly cloudy.10 mph87%29.77 "Hg9 mi
5:51 PM38 °FLight rain. Mostly cloudy.14 mph86%29.76 "Hg10 mi
5:02 PM39 °FCloudy.13 mph93%29.75 "Hg10 mi
Weather by CustomWeather, © 2015

See weather overviewHow to use our weather pages